FW9822 Weather Reports


time (UTC)temp
C
wind
direction
speed
KPH
gust
KPH
rain 1hr
cm
rain 24hr
cm
rain mn
cm
humidity
%
barometer
mb
20260505051104 16 128 0.0 0.0 0.00 0.00 0.00 73 1000.5
20260505050601 16 128 0.0 0.0 0.00 0.00 0.00 71 1000.6
20260505041550 17 128 0.0 3.2 0.00 0.00 0.00 65 1000.9
20260505041048 17 128 0.0 3.2 0.00 0.00 0.00 65 1000.8
20260505040546 17 128 0.0 3.2 0.00 0.00 0.00 66 1000.7
20260505040048 17 128 0.0 3.2 0.00 0.00 0.00 64 1000.8
20260505035545 17 127 0.0 1.6 0.00 0.00 0.00 64 1000.6
20260505035042 17 127 0.0 3.2 0.00 0.00 0.00 65 1000.6
20260505034542 17 127 0.0 3.2 0.00 0.00 0.00 64 1000.6
20260505034043 17 127 0.0 1.6 0.00 0.00 0.00 64 1000.6
20260505033542 17 127 0.0 1.6 0.00 0.00 0.00 64 1000.6
20260505033044 17 128 0.0 1.6 0.00 0.00 0.00 65 1000.6
20260505032542 17 128 0.0 1.6 0.00 0.00 0.00 66 1000.6
20260505032042 17 128 0.0 1.6 0.00 0.00 0.00 65 1000.6
20260505031544 18 128 0.0 1.6 0.00 0.00 0.00 63 1000.7
20260505031310 18 128 0.0 1.6 0.00 0.00 0.00 61 1000.7
20260505030540 18 128 0.0 1.6 0.00 0.00 0.00 60 1000.6
20260505030309 18 128 0.0 1.6 0.00 0.00 0.00 61 1000.5
20260505025540 18 128 0.0 1.6 0.00 0.00 0.00 59 1000.5
20260505025310 19 128 0.0 1.6 0.00 0.00 0.00 57 1000.4
20260505024809 19 128 0.0 3.2 0.00 0.00 0.00 56 1000.5
20260505024041 19 128 0.0 3.2 0.00 0.00 0.00 56 1000.4
20260505023539 19 128 0.0 3.2 0.00 0.00 0.00 54 1000.4
20260505023040 19 128 0.0 4.8 0.00 0.00 0.00 54 1000.5
20260505022534 19 128 0.0 4.8 0.00 0.00 0.00 54 1000.4
20260505022028 19 172 0.0 4.8 0.00 0.00 0.00 54 1000.5
20260505021521 19 232 0.0 3.2 0.00 0.00 0.00 55 1000.5
20260505021014 18 228 1.6 4.8 0.00 0.00 0.00 55 1000.5
20260505020508 18 228 0.0 4.8 0.00 0.00 0.00 56 1000.5
20260505020004 18 175 0.0 1.6 0.00 0.00 0.00 60 1000.4
20260505015456 18 175 0.0 1.6 0.00 0.00 0.00 59 1000.3
20260505014951 18 175 0.0 1.6 0.00 0.00 0.00 57 1000.1
20260505014444 19 175 0.0 3.2 0.00 0.00 0.00 58 1000.2
20260505013939 19 175 0.0 3.2 0.00 0.00 0.00 60 1000.2
20260505013432 20 175 0.0 3.2 0.00 0.00 0.00 59 1000.1
20260505012931 20 175 0.0 1.6 0.00 0.00 0.00 56 1000.1
20260505012430 20 175 0.0 1.6 0.00 0.00 0.00 56 999.9
20260505012202 20 175 0.0 1.6 0.00 0.00 0.00 53 999.9
20260505011432 21 175 0.0 1.6 0.00 0.00 0.00 52 999.9
20260505010929 21 175 0.0 1.6 0.00 0.00 0.00 50 999.8
20260505010428 21 175 1.6 4.8 0.00 0.00 0.00 48 999.7
20260505005928 21 175 1.6 4.8 0.00 0.00 0.00 46 999.6
20260505005659 21 148 0.0 3.2 0.00 0.00 0.00 46 999.7
20260505004929 21 148 0.0 3.2 0.00 0.00 0.00 46 999.7
20260505004428 21 145 1.6 6.4 0.00 0.00 0.00 46 999.7
20260505003928 21 145 1.6 6.4 0.00 0.00 0.00 45 999.6
20260505003700 22 198 0.0 3.2 0.00 0.00 0.00 45 999.6
20260505002929 22 133 0.0 3.2 0.00 0.00 0.00 45 999.6
20260505002426 22 133 1.6 4.8 0.00 0.00 0.00 45 999.6
20260505001925 22 133 1.6 8.0 0.00 0.00 0.00 44 999.5
20260505001423 22 133 1.6 8.0 0.00 0.00 0.00 43 999.5
20260505000922 22 205 1.6 8.0 0.00 0.00 0.00 44 999.5
20260505000421 22 197 1.6 3.2 0.00 0.00 0.00 43 999.4
20260504235917 22 194 1.6 4.8 0.00 0.00 0.00 43 999.5
20260504235412 22 211 1.6 6.4 0.00 0.00 0.00 43 999.5
20260504234906 22 191 1.6 6.4 0.00 0.00 0.00 44 999.4
20260504234359 22 192 1.6 6.4 0.00 0.00 0.00 43 999.4
20260504233852 22 195 1.6 6.4 0.00 0.00 0.00 42 999.4
20260504233347 22 183 3.2 8.0 0.00 0.00 0.00 41 999.4
20260504232840 22 144 3.2 9.7 0.00 0.00 0.00 41 999.4
20260504232336 23 213 3.2 9.7 0.00 0.00 0.00 41 999.3
20260504232059 23 215 3.2 9.7 0.00 0.00 0.00 41 999.2
20260504231323 23 163 3.2 11.3 0.00 0.00 0.00 41 999.2
20260504230816 23 123 1.6 11.3 0.00 0.00 0.00 40 999.2
20260504230310 23 137 3.2 6.4 0.00 0.00 0.00 40 999.1
20260504225804 23 217 3.2 9.7 0.00 0.00 0.00 39 999.2
20260504225258 23 213 4.8 12.9 0.00 0.00 0.00 40 999.1
20260504224754 23 219 3.2 12.9 0.00 0.00 0.00 39 999.2
20260504224246 23 235 3.2 9.7 0.00 0.00 0.00 39 999.1
20260504224011 23 138 3.2 8.0 0.00 0.00 0.00 39 999.1
20260504223235 23 215 1.6 8.0 0.00 0.00 0.00 40 999.2
20260504222730 23 211 1.6 8.0 0.00 0.00 0.00 40 999.2
20260504222224 23 236 3.2 8.0 0.00 0.00 0.00 38 999.3
20260504221717 23 138 4.8 12.9 0.00 0.00 0.00 38 999.3
20260504221211 24 215 3.2 12.9 0.00 0.00 0.00 38 999.2
20260504220711 24 217 3.2 8.0 0.00 0.00 0.00 39 999.0
20260504220444 24 216 3.2 8.0 0.00 0.00 0.00 38 998.9
20260504215711 24 129 3.2 11.3 0.00 0.00 0.00 37 999.0
20260504215213 24 213 3.2 11.3 0.00 0.00 0.00 38 999.1
20260504214712 24 124 3.2 9.7 0.00 0.00 0.00 37 999.0
20260504214214 24 217 3.2 9.7 0.00 0.00 0.00 37 999.0
20260504213712 24 174 3.2 9.7 0.00 0.00 0.00 36 999.0
20260504213214 24 123 3.2 9.7 0.00 0.00 0.00 38 999.0
20260504212709 24 196 3.2 12.9 0.00 0.00 0.00 36 999.1
20260504212208 24 198 3.2 16.1 0.00 0.00 0.00 36 999.0
20260504211708 24 228 4.8 16.1 0.00 0.00 0.00 36 999.0
20260504211207 24 185 3.2 8.0 0.00 0.00 0.00 37 999.0
20260504210709 24 211 3.2 8.0 0.00 0.00 0.00 36 998.9
20260504210207 24 208 3.2 8.0 0.00 0.00 0.00 39 999.0
20260504205940 24 220 3.2 8.0 0.00 0.00 0.00 36 998.9
20260504205204 24 223 3.2 8.0 0.00 0.00 0.00 38 999.0
20260504204705 24 110 3.2 11.3 0.00 0.00 0.00 37 999.0
20260504204205 24 96 3.2 11.3 0.00 0.00 0.00 36 999.1
20260504203705 23 213 3.2 9.7 0.00 0.00 0.00 38 999.2
20260504203435 23 213 3.2 9.7 0.00 0.00 0.00 41 999.3
20260504202704 24 219 3.2 11.3 0.00 0.00 0.00 37 999.5
20260504202205 24 220 3.2 11.3 0.00 0.00 0.00 36 999.5
20260504201703 24 205 3.2 8.0 0.00 0.00 0.00 37 999.4
20260504201205 24 161 3.2 9.7 0.00 0.00 0.00 37 999.5
20260504200703 24 216 1.6 9.7 0.00 0.00 0.00 38 999.6
20260504200203 24 202 1.6 8.0 0.00 0.00 0.00 38 999.6
20260504195709 24 170 3.2 8.0 0.00 0.00 0.00 38 999.8
20260504195434 24 216 3.2 8.0 0.00 0.00 0.00 37 999.8
20260504194705 23 208 3.2 6.4 0.00 0.00 0.00 39 999.8
20260504194203 23 220 3.2 11.3 0.00 0.00 0.00 38 999.9
20260504193705 23 220 3.2 11.3 0.00 0.00 0.00 38 1000.0
20260504193435 23 222 3.2 9.7 0.00 0.00 0.00 37 1000.0
20260504192936 23 201 3.2 14.5 0.00 0.00 0.00 37 1000.2
20260504192201 23 216 3.2 14.5 0.00 0.00 0.00 38 1000.3
20260504191658 23 158 3.2 9.7 0.00 0.00 0.00 38 1000.3
20260504191153 23 212 3.2 9.7 0.00 0.00 0.00 38 1000.4
20260504190917 23 216 3.2 9.7 0.00 0.00 0.00 37 1000.4
20260504190141 23 213 3.2 8.0 0.00 0.00 0.00 38 1000.5
20260504185635 23 220 3.2 8.0 0.00 0.00 0.00 38 1000.8
20260504185128 23 221 3.2 8.0 0.00 0.00 0.00 39 1000.7
20260504184856 23 223 3.2 6.4 0.00 0.00 0.00 40 1000.8
20260504184117 23 215 3.2 8.0 0.00 0.00 0.00 41 1001.1
20260504183841 22 216 1.6 8.0 0.00 0.00 0.00 40 1001.1
20260504183104 22 153 3.2 14.5 0.00 0.00 0.00 38 1001.1
20260504182559 22 214 4.8 14.5 0.00 0.00 0.00 38 1001.2
20260504182052 22 122 3.2 9.7 0.00 0.00 0.00 39 1001.1
20260504181547 22 225 3.2 8.0 0.00 0.00 0.00 38 1001.3
20260504181040 22 213 3.2 16.1 0.00 0.00 0.00 40 1001.4
20260504180536 22 215 3.2 16.1 0.00 0.00 0.00 39 1001.5
20260504180302 22 228 3.2 12.9 0.00 0.00 0.00 40 1001.6
20260504175522 22 220 4.8 11.3 0.00 0.00 0.00 40 1001.7
20260504175018 22 200 3.2 9.7 0.00 0.00 0.00 41 1001.8
20260504174511 22 217 3.2 9.7 0.00 0.00 0.00 41 1001.7
20260504174004 21 211 3.2 9.7 0.00 0.00 0.00 42 1001.7
20260504173459 21 116 4.8 9.7 0.00 0.00 0.00 40 1001.7
20260504172951 21 215 4.8 9.7 0.00 0.00 0.00 40 1002.0
20260504172444 21 215 3.2 9.7 0.00 0.00 0.00 41 1002.0
20260504172209 21 319 3.2 8.0 0.00 0.00 0.00 41 1002.0
20260504171434 21 202 3.2 8.0 0.00 0.00 0.00 41 1002.0
20260504170926 21 213 3.2 11.3 0.00 0.00 0.00 42 1002.1
20260504170420 21 213 3.2 11.3 0.00 0.00 0.00 42 1002.2
20260504160308 19 216 3.2 11.3 0.00 0.00 0.00 42 1003.1
20260504150703 18 125 3.2 9.7 0.00 0.00 0.00 44 1003.6
20260504150157 18 222 3.2 9.7 0.00 0.00 0.00 45 1003.6
20260504141115 16 117 1.6 6.4 0.00 0.00 0.00 54 1003.6
20260504140613 16 196 1.6 6.4 0.00 0.00 0.00 51 1003.6
20260504140345 16 196 1.6 6.4 0.00 0.00 0.00 49 1003.7
20260504130605 13 211 3.2 8.0 0.00 0.00 0.00 61 1004.0
20260504130105 13 211 1.6 8.0 0.00 0.00 0.00 58 1004.2
20260504110529 7 79 0.0 0.0 0.00 0.00 0.00 84 1004.7
20260504100415 7 242 0.0 0.0 0.00 0.00 0.00 84 1004.5
20260504081709 7 242 0.0 0.0 0.00 0.00 0.00 84 1004.9
20260504081205 7 242 0.0 0.0 0.00 0.00 0.00 84 1004.8
20260504080657 7 242 0.0 0.0 0.00 0.00 0.00 84 1004.9
20260504080152 7 242 0.0 0.0 0.00 0.00 0.00 84 1004.7